| time (UTC) | temp C | wind direction | speed KPH | gust KPH | rain 1hr cm | rain 24hr cm | rain mn cm | humidity % | barometer mb |
| 20260906162618 | 23 | 136 | 3.2 | 4.8 | 0.00 | 0.00 | 0.00 | 82 | 1022.5 |
| 20260906162112 | 23 | 102 | 1.6 | 3.2 | 0.00 | 0.00 | 0.00 | 84 | 1022.6 |
| 20260906161607 | 23 | 123 | 3.2 | 11.3 | 0.00 | 0.00 | 0.00 | 85 | 1022.6 |
| 20260906161106 | 23 | 65 | 0.0 | 4.8 | 0.00 | 0.00 | 0.00 | 85 | 1022.8 |
| 20260906160605 | 23 | 183 | 1.6 | 3.2 | 0.00 | 0.00 | 0.00 | 85 | 1022.6 |
| 20260906160104 | 22 | 4 | 1.6 | 11.3 | 0.00 | 0.00 | 0.00 | 86 | 1022.5 |
| 20260906155601 | 22 | 101 | 4.8 | 8.0 | 0.00 | 0.00 | 0.00 | 86 | 1022.6 |
| 20260906155058 | 22 | 117 | 0.0 | 4.8 | 0.00 | 0.00 | 0.00 | 86 | 1022.5 |
| 20260906154553 | 23 | 85 | 3.2 | 11.3 | 0.00 | 0.00 | 0.00 | 85 | 1022.4 |
| 20260906154051 | 22 | 5 | 3.2 | 4.8 | 0.00 | 0.00 | 0.00 | 87 | 1022.7 |
| 20260906153550 | 22 | 175 | 3.2 | 9.7 | 0.00 | 0.00 | 0.00 | 87 | 1022.7 |
| 20260906153045 | 22 | 23 | 4.8 | 4.8 | 0.00 | 0.00 | 0.00 | 87 | 1022.9 |
| 20260906152544 | 22 | 85 | 4.8 | 11.3 | 0.00 | 0.00 | 0.00 | 86 | 1022.9 |
| 20260906152039 | 22 | 53 | 8.0 | 11.3 | 0.00 | 0.00 | 0.00 | 87 | 1023.0 |
| 20260906151534 | 21 | 118 | 0.0 | 1.6 | 0.00 | 0.00 | 0.00 | 89 | 1022.9 |
| 20260906151030 | 21 | 159 | 4.8 | 8.0 | 0.00 | 0.00 | 0.00 | 89 | 1022.8 |
| 20260906150525 | 21 | 101 | 3.2 | 11.3 | 0.00 | 0.00 | 0.00 | 91 | 1022.8 |
| 20260906150020 | 21 | 106 | 3.2 | 4.8 | 0.00 | 0.00 | 0.00 | 91 | 1022.7 |
| 20260906145519 | 21 | 84 | 3.2 | 4.8 | 0.00 | 0.00 | 0.00 | 92 | 1022.5 |
| 20260906145014 | 21 | 179 | 1.6 | 1.6 | 0.00 | 0.00 | 0.00 | 92 | 1022.6 |
| 20260906144508 | 21 | 146 | 0.0 | 3.2 | 0.00 | 0.00 | 0.00 | 92 | 1022.5 |
| 20260906143958 | 21 | 115 | 1.6 | 9.7 | 0.00 | 0.00 | 0.00 | 92 | 1022.4 |
| 20260906143453 | 21 | 105 | 1.6 | 3.2 | 0.00 | 0.00 | 0.00 | 92 | 1022.6 |
| 20260906142949 | 21 | 77 | 4.8 | 8.0 | 0.00 | 0.00 | 0.00 | 93 | 1022.7 |
| 20260906142449 | 20 | 97 | 0.0 | 8.0 | 0.00 | 0.00 | 0.00 | 94 | 1022.6 |
| 20260906141943 | 20 | 137 | 6.4 | 9.7 | 0.00 | 0.00 | 0.00 | 94 | 1022.5 |
| 20260906141437 | 20 | 115 | 3.2 | 8.0 | 0.00 | 0.00 | 0.00 | 95 | 1022.9 |
| 20260906140932 | 20 | 30 | 4.8 | 11.3 | 0.00 | 0.00 | 0.00 | 95 | 1022.6 |
| 20260906140426 | 20 | 134 | 1.6 | 3.2 | 0.00 | 0.00 | 0.00 | 96 | 1022.7 |
| 20260906135919 | 20 | 115 | 0.0 | 9.7 | 0.00 | 0.00 | 0.00 | 96 | 1022.7 |
| 20260906135418 | 20 | 155 | 3.2 | 4.8 | 0.00 | 0.00 | 0.00 | 96 | 1022.7 |
| 20260906134914 | 20 | 50 | 4.8 | 4.8 | 0.00 | 0.00 | 0.00 | 97 | 1022.6 |
| 20260906134409 | 20 | 82 | 0.0 | 1.6 | 0.00 | 0.00 | 0.00 | 97 | 1022.3 |
| 20260906133904 | 20 | 130 | 1.6 | 3.2 | 0.00 | 0.00 | 0.00 | 97 | 1022.5 |
| 20260906133400 | 20 | 50 | 4.8 | 8.0 | 0.00 | 0.00 | 0.00 | 98 | 1022.2 |
| 20260906132855 | 20 | 86 | 0.0 | 3.2 | 0.00 | 0.00 | 0.00 | 98 | 1022.4 |
| 20260906132350 | 20 | 121 | 1.6 | 8.0 | 0.00 | 0.00 | 0.00 | 98 | 1022.0 |
| 20260906131846 | 20 | 42 | 3.2 | 9.7 | 0.00 | 0.00 | 0.00 | 99 | 1022.3 |
| 20260906131341 | 20 | 63 | 1.6 | 8.0 | 0.00 | 0.00 | 0.00 | 99 | 1022.0 |
| 20260906130837 | 20 | 73 | 4.8 | 8.0 | 0.00 | 0.00 | 0.00 | 99 | 1022.2 |
| 20260906130336 | 20 | 118 | 1.6 | 9.7 | 0.00 | 0.00 | 0.00 | 99 | 1022.0 |
| 20260906125835 | 20 | 129 | 0.0 | 3.2 | 0.00 | 0.00 | 0.00 | 99 | 1022.2 |
| 20260906125332 | 20 | 107 | 1.6 | 3.2 | 0.00 | 0.00 | 0.00 | 99 | 1021.9 |
| 20260906124827 | 20 | 79 | 1.6 | 3.2 | 0.00 | 0.00 | 0.00 | 99 | 1022.2 |
| 20260906124324 | 20 | 111 | 0.0 | 0.0 | 0.00 | 0.00 | 0.00 | 99 | 1022.0 |
| 20260906123823 | 19 | 70 | 0.0 | 3.2 | 0.00 | 0.00 | 0.00 | 99 | 1021.9 |
| 20260906123318 | 19 | 40 | 0.0 | 0.0 | 0.00 | 0.00 | 0.00 | 99 | 1021.9 |
| 20260906122817 | 19 | 29 | 1.6 | 1.6 | 0.00 | 0.00 | 0.00 | 99 | 1022.2 |
| 20260906122312 | 19 | 56 | 3.2 | 4.8 | 0.00 | 0.00 | 0.00 | 99 | 1022.0 |
| 20260906121809 | 19 | 78 | 1.6 | 3.2 | 0.00 | 0.00 | 0.00 | 99 | 1022.0 |
| 20260906121305 | 19 | 92 | 0.0 | 3.2 | 0.00 | 0.00 | 0.00 | 99 | 1021.8 |
| 20260906120801 | 19 | 27 | 1.6 | 4.8 | 0.00 | 0.00 | 0.00 | 99 | 1021.9 |
| 20260906120256 | 19 | 30 | 3.2 | 3.2 | 0.00 | 0.00 | 0.00 | 99 | 1021.7 |
| 20260906115752 | 19 | 70 | 1.6 | 4.8 | 0.00 | 0.00 | 0.00 | 99 | 1021.6 |
| 20260906115242 | 19 | 69 | 0.0 | 0.0 | 0.00 | 0.00 | 0.00 | 99 | 1021.7 |
| 20260906114741 | 19 | 75 | 0.0 | 0.0 | 0.00 | 0.00 | 0.00 | 99 | 1021.7 |
| 20260906114236 | 19 | 77 | 0.0 | 0.0 | 0.00 | 0.00 | 0.00 | 99 | 1021.7 |
| 20260906113731 | 19 | 1 | 0.0 | 1.6 | 0.00 | 0.00 | 0.00 | 99 | 1021.6 |
| 20260906113230 | 19 | 42 | 0.0 | 1.6 | 0.00 | 0.00 | 0.00 | 99 | 1021.5 |
| 20260906112725 | 19 | 61 | 0.0 | 1.6 | 0.00 | 0.00 | 0.00 | 99 | 1021.6 |
| 20260906112222 | 19 | 66 | 0.0 | 3.2 | 0.00 | 0.00 | 0.00 | 99 | 1021.6 |
| 20260906111721 | 19 | 34 | 1.6 | 1.6 | 0.00 | 0.00 | 0.00 | 99 | 1021.4 |
| 20260906111216 | 19 | 82 | 0.0 | 1.6 | 0.00 | 0.00 | 0.00 | 99 | 1021.3 |
| 20260906110711 | 19 | 81 | 0.0 | 1.6 | 0.00 | 0.00 | 0.00 | 98 | 1021.3 |
| 20260906110206 | 19 | 85 | 0.0 | 1.6 | 0.00 | 0.00 | 0.00 | 98 | 1021.2 |
| 20260906105700 | 19 | 51 | 0.0 | 0.0 | 0.00 | 0.00 | 0.00 | 98 | 1021.4 |
| 20260906105156 | 19 | 91 | 0.0 | 1.6 | 0.00 | 0.00 | 0.00 | 98 | 1021.2 |
| 20260906104655 | 20 | 66 | 0.0 | 1.6 | 0.00 | 0.00 | 0.00 | 98 | 1021.2 |
| 20260906104149 | 20 | 25 | 0.0 | 1.6 | 0.00 | 0.00 | 0.00 | 98 | 1021.1 |
| 20260906103647 | 20 | 101 | 0.0 | 1.6 | 0.00 | 0.00 | 0.00 | 98 | 1021.2 |
| 20260906103142 | 20 | 88 | 0.0 | 1.6 | 0.00 | 0.00 | 0.00 | 98 | 1021.1 |
| 20260906102637 | 20 | 123 | 0.0 | 0.0 | 0.00 | 0.00 | 0.00 | 97 | 1021.1 |
| 20260906102132 | 20 | 57 | 1.6 | 8.0 | 0.00 | 0.00 | 0.00 | 97 | 1021.2 |
| 20260906101631 | 20 | 102 | 0.0 | 3.2 | 0.00 | 0.00 | 0.00 | 97 | 1021.0 |
| 20260906101126 | 20 | 30 | 3.2 | 4.8 | 0.00 | 0.00 | 0.00 | 97 | 1021.1 |
| 20260906100622 | 20 | 114 | 0.0 | 3.2 | 0.00 | 0.00 | 0.00 | 97 | 1021.1 |
| 20260906100121 | 20 | 182 | 1.6 | 1.6 | 0.00 | 0.00 | 0.00 | 97 | 1020.8 |
| 20260906095616 | 20 | 38 | 4.8 | 4.8 | 0.00 | 0.00 | 0.00 | 97 | 1020.7 |
| 20260906095112 | 20 | 70 | 0.0 | 3.2 | 0.00 | 0.00 | 0.00 | 97 | 1020.6 |
| 20260906094611 | 20 | 52 | 0.0 | 1.6 | 0.00 | 0.00 | 0.00 | 97 | 1020.3 |
| 20260906094107 | 20 | 95 | 0.0 | 3.2 | 0.00 | 0.00 | 0.00 | 96 | 1020.4 |
| 20260906093602 | 20 | 78 | 1.6 | 1.6 | 0.00 | 0.00 | 0.00 | 96 | 1020.4 |
| 20260906093056 | 20 | 120 | 1.6 | 3.2 | 0.00 | 0.00 | 0.00 | 96 | 1020.3 |
| 20260906092552 | 20 | 43 | 4.8 | 4.8 | 0.00 | 0.00 | 0.00 | 96 | 1020.4 |
| 20260906092041 | 20 | 78 | 0.0 | 1.6 | 0.00 | 0.00 | 0.00 | 96 | 1020.3 |
| 20260906091537 | 20 | 112 | 0.0 | 9.7 | 0.00 | 0.00 | 0.00 | 96 | 1020.3 |
| 20260906091033 | 20 | 55 | 1.6 | 1.6 | 0.00 | 0.00 | 0.00 | 96 | 1020.4 |
| 20260906090533 | 20 | 120 | 3.2 | 3.2 | 0.00 | 0.00 | 0.00 | 96 | 1020.3 |
| 20260906090028 | 20 | 119 | 1.6 | 8.0 | 0.00 | 0.00 | 0.00 | 96 | 1020.4 |
| 20260906085522 | 20 | 32 | 1.6 | 3.2 | 0.00 | 0.00 | 0.00 | 96 | 1020.2 |
| 20260906085021 | 20 | 112 | 1.6 | 3.2 | 0.00 | 0.00 | 0.00 | 96 | 1020.4 |
| 20260906084516 | 20 | 31 | 1.6 | 8.0 | 0.00 | 0.00 | 0.00 | 96 | 1020.4 |
| 20260906084014 | 20 | 264 | 0.0 | 1.6 | 0.00 | 0.00 | 0.00 | 96 | 1020.5 |
| 20260906083511 | 20 | 69 | 1.6 | 9.7 | 0.00 | 0.00 | 0.00 | 96 | 1020.5 |
| 20260906083010 | 20 | 41 | 0.0 | 8.0 | 0.00 | 0.00 | 0.00 | 96 | 1020.5 |
| 20260906082505 | 20 | 120 | 0.0 | 3.2 | 0.00 | 0.00 | 0.00 | 96 | 1020.6 |
| 20260906082001 | 20 | 40 | 3.2 | 4.8 | 0.00 | 0.00 | 0.00 | 95 | 1020.5 |
| 20260906081456 | 20 | 61 | 0.0 | 3.2 | 0.00 | 0.00 | 0.00 | 95 | 1020.5 |
| 20260906080952 | 20 | 6 | 1.6 | 4.8 | 0.00 | 0.00 | 0.00 | 95 | 1020.6 |
| 20260906080449 | 20 | 25 | 1.6 | 3.2 | 0.00 | 0.00 | 0.00 | 95 | 1020.5 |
| 20260906075949 | 20 | 80 | 0.0 | 1.6 | 0.00 | 0.00 | 0.00 | 95 | 1020.5 |
| 20260906075444 | 20 | 341 | 1.6 | 4.8 | 0.00 | 0.00 | 0.00 | 95 | 1020.6 |
| 20260906074938 | 20 | 62 | 0.0 | 3.2 | 0.00 | 0.00 | 0.00 | 95 | 1020.7 |
| 20260906074433 | 20 | 85 | 0.0 | 1.6 | 0.00 | 0.00 | 0.00 | 95 | 1020.7 |
| 20260906073931 | 20 | 83 | 0.0 | 1.6 | 0.00 | 0.00 | 0.00 | 95 | 1020.6 |
| 20260906073426 | 21 | 80 | 0.0 | 1.6 | 0.00 | 0.00 | 0.00 | 94 | 1020.6 |
| 20260906072923 | 21 | 79 | 0.0 | 1.6 | 0.00 | 0.00 | 0.00 | 94 | 1020.7 |
| 20260906072418 | 21 | 91 | 1.6 | 1.6 | 0.00 | 0.00 | 0.00 | 94 | 1020.8 |
| 20260906071914 | 21 | 36 | 1.6 | 1.6 | 0.00 | 0.00 | 0.00 | 94 | 1020.8 |
| 20260906071409 | 21 | 76 | 1.6 | 3.2 | 0.00 | 0.00 | 0.00 | 94 | 1020.8 |
| 20260906070905 | 21 | 76 | 1.6 | 1.6 | 0.00 | 0.00 | 0.00 | 93 | 1020.8 |
| 20260906070401 | 21 | 103 | 0.0 | 1.6 | 0.00 | 0.00 | 0.00 | 93 | 1020.8 |
| 20260906065856 | 21 | 50 | 0.0 | 4.8 | 0.00 | 0.00 | 0.00 | 93 | 1020.5 |
| 20260906065350 | 21 | 19 | 1.6 | 1.6 | 0.00 | 0.00 | 0.00 | 93 | 1020.6 |
| 20260906064847 | 21 | 7 | 0.0 | 8.0 | 0.00 | 0.00 | 0.00 | 93 | 1020.7 |
| 20260906064343 | 21 | 82 | 1.6 | 3.2 | 0.00 | 0.00 | 0.00 | 93 | 1020.8 |
| 20260906063842 | 21 | 97 | 0.0 | 3.2 | 0.00 | 0.00 | 0.00 | 93 | 1020.9 |
| 20260906063338 | 21 | 36 | 1.6 | 3.2 | 0.00 | 0.00 | 0.00 | 93 | 1020.6 |
| 20260906062833 | 21 | 45 | 1.6 | 3.2 | 0.00 | 0.00 | 0.00 | 92 | 1020.7 |
| 20260906062332 | 21 | 32 | 1.6 | 4.8 | 0.00 | 0.00 | 0.00 | 93 | 1020.9 |
| 20260906061828 | 21 | 35 | 1.6 | 4.8 | 0.00 | 0.00 | 0.00 | 93 | 1021.1 |
| 20260906061324 | 21 | 57 | 1.6 | 1.6 | 0.00 | 0.00 | 0.00 | 92 | 1020.9 |
| 20260906060818 | 21 | 102 | 0.0 | 1.6 | 0.00 | 0.00 | 0.00 | 92 | 1020.9 |
| 20260906060317 | 21 | 97 | 0.0 | 3.2 | 0.00 | 0.00 | 0.00 | 92 | 1020.8 |
| 20260906055812 | 21 | 64 | 1.6 | 1.6 | 0.00 | 0.00 | 0.00 | 92 | 1020.8 |
| 20260906055307 | 21 | 85 | 0.0 | 4.8 | 0.00 | 0.00 | 0.00 | 92 | 1020.8 |
| 20260906054802 | 21 | 71 | 0.0 | 3.2 | 0.00 | 0.00 | 0.00 | 92 | 1021.0 |
| 20260906054258 | 21 | 66 | 1.6 | 1.6 | 0.00 | 0.00 | 0.00 | 91 | 1020.9 |
| 20260906053754 | 21 | 44 | 1.6 | 3.2 | 0.00 | 0.00 | 0.00 | 91 | 1021.0 |
| 20260906053250 | 22 | 66 | 0.0 | 0.0 | 0.00 | 0.00 | 0.00 | 91 | 1020.9 |
| 20260906052744 | 22 | 48 | 0.0 | 0.0 | 0.00 | 0.00 | 0.00 | 91 | 1020.7 |
| 20260906052240 | 22 | 71 | 0.0 | 0.0 | 0.00 | 0.00 | 0.00 | 91 | 1020.9 |
| 20260906051738 | 22 | 85 | 0.0 | 0.0 | 0.00 | 0.00 | 0.00 | 91 | 1020.7 |
| 20260906051237 | 22 | 82 | 0.0 | 0.0 | 0.00 | 0.00 | 0.00 | 90 | 1021.0 |
| 20260906050732 | 22 | 65 | 0.0 | 0.0 | 0.00 | 0.00 | 0.00 | 90 | 1020.9 |
| 20260906050227 | 22 | 60 | 0.0 | 0.0 | 0.00 | 0.00 | 0.00 | 90 | 1020.9 |
| 20260906045726 | 22 | 68 | 0.0 | 0.0 | 0.00 | 0.00 | 0.00 | 90 | 1021.1 |
| 20260906045221 | 22 | 87 | 0.0 | 0.0 | 0.00 | 0.00 | 0.00 | 90 | 1021.0 |
| 20260906044717 | 22 | 83 | 0.0 | 0.0 | 0.00 | 0.00 | 0.00 | 90 | 1021.1 |
| 20260906044212 | 22 | 77 | 0.0 | 0.0 | 0.00 | 0.00 | 0.00 | 90 | 1021.0 |
| 20260906043708 | 22 | 56 | 0.0 | 0.0 | 0.00 | 0.00 | 0.00 | 90 | 1021.0 |
| 20260906043204 | 22 | 65 | 0.0 | 0.0 | 0.00 | 0.00 | 0.00 | 90 | 1021.0 |
| 20260906042703 | 22 | 77 | 0.0 | 0.0 | 0.00 | 0.00 | 0.00 | 90 | 1021.1 |
| 20260906042157 | 22 | 83 | 0.0 | 0.0 | 0.00 | 0.00 | 0.00 | 90 | 1021.0 |
| 20260906041653 | 22 | 81 | 0.0 | 0.0 | 0.00 | 0.00 | 0.00 | 90 | 1021.2 |
| 20260906041148 | 22 | 82 | 0.0 | 0.0 | 0.00 | 0.00 | 0.00 | 90 | 1021.2 |
| 20260906040643 | 22 | 77 | 0.0 | 0.0 | 0.00 | 0.00 | 0.00 | 90 | 1021.1 |
| 20260906040139 | 22 | 81 | 0.0 | 0.0 | 0.00 | 0.00 | 0.00 | 89 | 1021.5 |
| 20260906035633 | 22 | 82 | 0.0 | 0.0 | 0.00 | 0.00 | 0.00 | 89 | 1021.1 |
| 20260906035129 | 22 | 82 | 0.0 | 0.0 | 0.00 | 0.00 | 0.00 | 89 | 1021.2 |
| 20260906034624 | 22 | 82 | 0.0 | 0.0 | 0.00 | 0.00 | 0.00 | 89 | 1021.2 |
| 20260906034118 | 22 | 63 | 0.0 | 0.0 | 0.00 | 0.00 | 0.00 | 89 | 1021.1 |
| 20260906033614 | 22 | 84 | 0.0 | 0.0 | 0.00 | 0.00 | 0.00 | 89 | 1021.1 |
| 20260906033109 | 22 | 82 | 0.0 | 0.0 | 0.00 | 0.00 | 0.00 | 89 | 1021.2 |
| 20260906032606 | 22 | 67 | 0.0 | 0.0 | 0.00 | 0.00 | 0.00 | 89 | 1021.2 |
| 20260906032105 | 22 | 78 | 0.0 | 0.0 | 0.00 | 0.00 | 0.00 | 89 | 1021.1 |
| 20260906031601 | 22 | 78 | 0.0 | 0.0 | 0.00 | 0.00 | 0.00 | 88 | 1021.2 |
| 20260906031056 | 22 | 82 | 0.0 | 0.0 | 0.00 | 0.00 | 0.00 | 88 | 1021.4 |
| 20260906030555 | 22 | 81 | 0.0 | 0.0 | 0.00 | 0.00 | 0.00 | 88 | 1021.4 |
| 20260906030055 | 22 | 82 | 0.0 | 0.0 | 0.00 | 0.00 | 0.00 | 88 | 1021.5 |
| 20260906025550 | 22 | 78 | 0.0 | 0.0 | 0.00 | 0.00 | 0.00 | 87 | 1021.4 |
| 20260906025048 | 22 | 59 | 0.0 | 0.0 | 0.00 | 0.00 | 0.00 | 87 | 1021.0 |
| 20260906024544 | 22 | 60 | 0.0 | 0.0 | 0.00 | 0.00 | 0.00 | 86 | 1021.2 |
| 20260906024043 | 22 | 48 | 0.0 | 0.0 | 0.00 | 0.00 | 0.00 | 86 | 1021.0 |
| 20260906023540 | 22 | 85 | 0.0 | 1.6 | 0.00 | 0.00 | 0.00 | 86 | 1020.8 |
| 20260906023034 | 23 | 95 | 0.0 | 0.0 | 0.00 | 0.00 | 0.00 | 85 | 1020.7 |
| 20260906022530 | 23 | 123 | 0.0 | 0.0 | 0.00 | 0.00 | 0.00 | 85 | 1020.8 |
| 20260906022025 | 23 | 130 | 0.0 | 0.0 | 0.00 | 0.00 | 0.00 | 85 | 1020.7 |
| 20260906021520 | 23 | 145 | 0.0 | 0.0 | 0.00 | 0.00 | 0.00 | 85 | 1020.6 |
| 20260906021014 | 22 | 125 | 0.0 | 0.0 | 0.00 | 0.00 | 0.00 | 85 | 1020.4 |
| 20260906020514 | 23 | 121 | 0.0 | 0.0 | 0.00 | 0.00 | 0.00 | 85 | 1020.3 |
| 20260906020013 | 23 | 75 | 1.6 | 1.6 | 0.00 | 0.00 | 0.00 | 85 | 1020.0 |
| 20260906015513 | 23 | 93 | 0.0 | 0.0 | 0.00 | 0.00 | 0.00 | 84 | 1019.8 |
| 20260906015012 | 23 | 86 | 0.0 | 1.6 | 0.00 | 0.00 | 0.00 | 84 | 1019.9 |
| 20260906014507 | 23 | 62 | 1.6 | 1.6 | 0.00 | 0.00 | 0.00 | 84 | 1019.7 |
| 20260906014003 | 23 | 47 | 0.0 | 1.6 | 0.00 | 0.00 | 0.00 | 83 | 1019.6 |
| 20260906013458 | 23 | 102 | 0.0 | 1.6 | 0.00 | 0.00 | 0.00 | 83 | 1019.5 |
| 20260906012954 | 23 | 73 | 1.6 | 3.2 | 0.00 | 0.00 | 0.00 | 82 | 1019.6 |
| 20260906012449 | 23 | 139 | 1.6 | 1.6 | 0.00 | 0.00 | 0.00 | 82 | 1019.3 |
| 20260906011948 | 23 | 104 | 0.0 | 1.6 | 0.00 | 0.00 | 0.00 | 82 | 1019.4 |
| 20260906011444 | 24 | 111 | 1.6 | 1.6 | 0.00 | 0.00 | 0.00 | 81 | 1019.5 |
| 20260906010939 | 24 | 113 | 0.0 | 4.8 | 0.00 | 0.00 | 0.00 | 80 | 1019.4 |
| 20260906010434 | 24 | 123 | 0.0 | 1.6 | 0.00 | 0.00 | 0.00 | 80 | 1019.3 |
| 20260906005930 | 25 | 100 | 1.6 | 4.8 | 0.00 | 0.00 | 0.00 | 80 | 1019.3 |
| 20260906005430 | 25 | 111 | 0.0 | 8.0 | 0.00 | 0.00 | 0.00 | 79 | 1018.9 |
| 20260906004928 | 25 | 89 | 3.2 | 4.8 | 0.00 | 0.00 | 0.00 | 79 | 1018.8 |
| 20260906004422 | 25 | 95 | 1.6 | 3.2 | 0.00 | 0.00 | 0.00 | 79 | 1018.4 |
| 20260906003919 | 25 | 111 | 1.6 | 8.0 | 0.00 | 0.00 | 0.00 | 78 | 1018.5 |
| 20260906003414 | 25 | 95 | 1.6 | 9.7 | 0.00 | 0.00 | 0.00 | 78 | 1018.5 |
| 20260906002909 | 26 | 113 | 4.8 | 9.7 | 0.00 | 0.00 | 0.00 | 77 | 1018.9 |
| 20260906002409 | 26 | 91 | 0.0 | 3.2 | 0.00 | 0.00 | 0.00 | 75 | 1018.9 |
| 20260906001904 | 26 | 82 | 1.6 | 1.6 | 0.00 | 0.00 | 0.00 | 74 | 1018.9 |
| 20260906001400 | 26 | 108 | 0.0 | 11.3 | 0.00 | 0.00 | 0.00 | 74 | 1019.0 |
| 20260906000900 | 26 | 39 | 3.2 | 11.3 | 0.00 | 0.00 | 0.00 | 73 | 1018.8 |
| 20260906000400 | 26 | 18 | 1.6 | 11.3 | 0.00 | 0.00 | 0.00 | 73 | 1019.0 |
| 20260905235855 | 27 | 92 | 1.6 | 4.8 | 0.00 | 0.00 | 0.00 | 72 | 1018.6 |
| 20260905235349 | 27 | 74 | 1.6 | 3.2 | 0.00 | 0.00 | 0.00 | 72 | 1018.6 |
| 20260905234845 | 27 | 79 | 0.0 | 11.3 | 0.00 | 0.00 | 0.00 | 71 | 1018.4 |
| 20260905234340 | 27 | 43 | 4.8 | 12.9 | 0.00 | 0.00 | 0.00 | 71 | 1018.5 |
| 20260905233835 | 27 | 84 | 0.0 | 4.8 | 0.00 | 0.00 | 0.00 | 71 | 1018.3 |
| 20260905233330 | 27 | 354 | 1.6 | 11.3 | 0.00 | 0.00 | 0.00 | 70 | 1018.2 |
| 20260905232829 | 27 | 288 | 3.2 | 8.0 | 0.00 | 0.00 | 0.00 | 70 | 1018.2 |
| 20260905232325 | 27 | 195 | 3.2 | 9.7 | 0.00 | 0.00 | 0.00 | 70 | 1018.1 |
| 20260905231821 | 28 | 77 | 0.0 | 11.3 | 0.00 | 0.00 | 0.00 | 68 | 1018.2 |
| 20260905231316 | 28 | 140 | 3.2 | 11.3 | 0.00 | 0.00 | 0.00 | 67 | 1017.8 |
| 20260905230812 | 28 | 15 | 4.8 | 8.0 | 0.00 | 0.00 | 0.00 | 66 | 1017.9 |
| 20260905230310 | 28 | 95 | 0.0 | 9.7 | 0.00 | 0.00 | 0.00 | 65 | 1018.1 |
| 20260905225809 | 28 | 27 | 6.4 | 11.3 | 0.00 | 0.00 | 0.00 | 65 | 1018.1 |
| 20260905225306 | 28 | 112 | 3.2 | 8.0 | 0.00 | 0.00 | 0.00 | 65 | 1018.3 |
| 20260905224804 | 28 | 45 | 3.2 | 16.1 | 0.00 | 0.00 | 0.00 | 66 | 1018.3 |
| 20260905224300 | 28 | 202 | 1.6 | 4.8 | 0.00 | 0.00 | 0.00 | 66 | 1018.3 |
| 20260905223755 | 28 | 256 | 4.8 | 4.8 | 0.00 | 0.00 | 0.00 | 65 | 1018.2 |
| 20260905223252 | 28 | 223 | 3.2 | 9.7 | 0.00 | 0.00 | 0.00 | 65 | 1018.2 |
| 20260905222747 | 28 | 173 | 4.8 | 8.0 | 0.00 | 0.00 | 0.00 | 65 | 1018.3 |
| 20260905222246 | 29 | 125 | 1.6 | 4.8 | 0.00 | 0.00 | 0.00 | 65 | 1018.2 |
| 20260905221742 | 28 | 188 | 0.0 | 11.3 | 0.00 | 0.00 | 0.00 | 65 | 1018.1 |
| 20260905221239 | 29 | 203 | 4.8 | 9.7 | 0.00 | 0.00 | 0.00 | 64 | 1018.0 |
| 20260905220735 | 29 | 119 | 1.6 | 4.8 | 0.00 | 0.00 | 0.00 | 65 | 1018.1 |
| 20260905220231 | 29 | 258 | 1.6 | 8.0 | 0.00 | 0.00 | 0.00 | 65 | 1017.8 |
| 20260905215730 | 29 | 353 | 4.8 | 12.9 | 0.00 | 0.00 | 0.00 | 65 | 1017.8 |
| 20260905215226 | 29 | 8 | 6.4 | 11.3 | 0.00 | 0.00 | 0.00 | 66 | 1018.0 |
| 20260905214721 | 29 | 23 | 4.8 | 14.5 | 0.00 | 0.00 | 0.00 | 66 | 1018.1 |
| 20260905214217 | 30 | 41 | 1.6 | 8.0 | 0.00 | 0.00 | 0.00 | 65 | 1018.1 |
| 20260905213712 | 30 | 128 | 0.0 | 11.3 | 0.00 | 0.00 | 0.00 | 65 | 1018.2 |
| 20260905213208 | 29 | 35 | 4.8 | 12.9 | 0.00 | 0.00 | 0.00 | 65 | 1018.2 |
| 20260905212703 | 29 | 100 | 3.2 | 11.3 | 0.00 | 0.00 | 0.00 | 66 | 1018.2 |
| 20260905212202 | 29 | 126 | 4.8 | 8.0 | 0.00 | 0.00 | 0.00 | 64 | 1018.3 |
| 20260905211657 | 29 | 125 | 3.2 | 16.1 | 0.00 | 0.00 | 0.00 | 65 | 1018.2 |
| 20260905211152 | 29 | 156 | 1.6 | 9.7 | 0.00 | 0.00 | 0.00 | 66 | 1018.5 |
| 20260905210649 | 28 | 198 | 1.6 | 9.7 | 0.00 | 0.00 | 0.00 | 67 | 1018.5 |
| 20260905210149 | 28 | 310 | 3.2 | 4.8 | 0.00 | 0.00 | 0.00 | 67 | 1019.2 |
| 20260905205648 | 28 | 351 | 3.2 | 4.8 | 0.00 | 0.00 | 0.00 | 69 | 1019.0 |
| 20260905205147 | 28 | 215 | 0.0 | 8.0 | 0.00 | 0.00 | 0.00 | 71 | 1019.3 |
| 20260905204647 | 28 | 230 | 1.6 | 3.2 | 0.00 | 0.00 | 0.00 | 68 | 1019.6 |
| 20260905204142 | 28 | 203 | 1.6 | 9.7 | 0.00 | 0.00 | 0.00 | 70 | 1019.5 |
| 20260905203637 | 28 | 306 | 1.6 | 4.8 | 0.00 | 0.00 | 0.00 | 70 | 1019.4 |
| 20260905203132 | 28 | 231 | 1.6 | 4.8 | 0.00 | 0.00 | 0.00 | 69 | 1019.7 |
| 20260905202628 | 28 | 27 | 0.0 | 3.2 | 0.00 | 0.00 | 0.00 | 70 | 1019.5 |
| 20260905202123 | 28 | 170 | 0.0 | 3.2 | 0.00 | 0.00 | 0.00 | 70 | 1019.7 |
| 20260905201618 | 28 | 327 | 6.4 | 9.7 | 0.00 | 0.00 | 0.00 | 71 | 1019.8 |
| 20260905201118 | 28 | 314 | 1.6 | 8.0 | 0.00 | 0.00 | 0.00 | 71 | 1019.9 |
| 20260905200614 | 28 | 201 | 0.0 | 1.6 | 0.00 | 0.00 | 0.00 | 70 | 1019.8 |
| 20260905200109 | 28 | 189 | 0.0 | 1.6 | 0.00 | 0.00 | 0.00 | 70 | 1019.9 |
| 20260905195601 | 28 | 133 | 1.6 | 4.8 | 0.00 | 0.00 | 0.00 | 70 | 1019.9 |
| 20260905195057 | 28 | 65 | 3.2 | 4.8 | 0.00 | 0.00 | 0.00 | 70 | 1020.0 |
| 20260905194557 | 28 | 157 | 1.6 | 4.8 | 0.00 | 0.00 | 0.00 | 71 | 1020.3 |
| 20260905194056 | 28 | 157 | 0.0 | 1.6 | 0.00 | 0.00 | 0.00 | 71 | 1020.1 |
| 20260905193551 | 28 | 14 | 4.8 | 4.8 | 0.00 | 0.00 | 0.00 | 70 | 1020.1 |
| 20260905193046 | 28 | 184 | 0.0 | 1.6 | 0.00 | 0.00 | 0.00 | 71 | 1020.3 |
| 20260905192542 | 27 | 185 | 1.6 | 4.8 | 0.00 | 0.00 | 0.00 | 71 | 1020.2 |
| 20260905192038 | 27 | 321 | 3.2 | 4.8 | 0.00 | 0.00 | 0.00 | 71 | 1020.3 |
| 20260905191536 | 28 | 187 | 1.6 | 3.2 | 0.00 | 0.00 | 0.00 | 71 | 1020.2 |
| 20260905191036 | 27 | 78 | 1.6 | 3.2 | 0.00 | 0.00 | 0.00 | 73 | 1020.3 |
| 20260905190533 | 28 | 132 | 3.2 | 4.8 | 0.00 | 0.00 | 0.00 | 73 | 1020.4 |
| 20260905190028 | 27 | 127 | 1.6 | 4.8 | 0.00 | 0.00 | 0.00 | 73 | 1020.3 |
| 20260905185527 | 27 | 181 | 0.0 | 1.6 | 0.00 | 0.00 | 0.00 | 73 | 1020.3 |
| 20260905185026 | 27 | 7 | 3.2 | 8.0 | 0.00 | 0.00 | 0.00 | 75 | 1020.3 |
| 20260905184521 | 27 | 102 | 1.6 | 8.0 | 0.00 | 0.00 | 0.00 | 75 | 1020.1 |
| 20260905184019 | 27 | 18 | 4.8 | 4.8 | 0.00 | 0.00 | 0.00 | 74 | 1020.3 |
| 20260905183514 | 27 | 159 | 1.6 | 3.2 | 0.00 | 0.00 | 0.00 | 75 | 1020.0 |
| 20260905183009 | 27 | 154 | 1.6 | 3.2 | 0.00 | 0.00 | 0.00 | 75 | 1020.4 |
| 20260905182509 | 26 | 147 | 0.0 | 8.0 | 0.00 | 0.00 | 0.00 | 77 | 1020.2 |
| 20260905182003 | 26 | 123 | 0.0 | 4.8 | 0.00 | 0.00 | 0.00 | 77 | 1020.2 |
| 20260905181458 | 26 | 64 | 1.6 | 4.8 | 0.00 | 0.00 | 0.00 | 78 | 1020.4 |
| 20260905180957 | 26 | 31 | 6.4 | 9.7 | 0.00 | 0.00 | 0.00 | 79 | 1020.5 |
| 20260905180452 | 26 | 136 | 0.0 | 4.8 | 0.00 | 0.00 | 0.00 | 78 | 1020.5 |
| 20260905175947 | 26 | 129 | 0.0 | 3.2 | 0.00 | 0.00 | 0.00 | 79 | 1020.5 |
| 20260905175447 | 26 | 131 | 3.2 | 4.8 | 0.00 | 0.00 | 0.00 | 79 | 1020.7 |
| 20260905174943 | 26 | 7 | 1.6 | 9.7 | 0.00 | 0.00 | 0.00 | 80 | 1020.6 |
| 20260905174437 | 26 | 221 | 1.6 | 1.6 | 0.00 | 0.00 | 0.00 | 79 | 1020.7 |
| 20260905173933 | 26 | 137 | 0.0 | 4.8 | 0.00 | 0.00 | 0.00 | 80 | 1020.9 |
| 20260905173430 | 25 | 9 | 3.2 | 3.2 | 0.00 | 0.00 | 0.00 | 80 | 1021.0 |
| 20260905172925 | 25 | 80 | 3.2 | 4.8 | 0.00 | 0.00 | 0.00 | 81 | 1021.2 |
| 20260905172422 | 25 | 74 | 1.6 | 8.0 | 0.00 | 0.00 | 0.00 | 83 | 1021.2 |
| 20260905171918 | 25 | 112 | 1.6 | 4.8 | 0.00 | 0.00 | 0.00 | 82 | 1021.1 |
| 20260905171410 | 25 | 132 | 1.6 | 3.2 | 0.00 | 0.00 | 0.00 | 84 | 1020.9 |
| 20260905170905 | 24 | 163 | 0.0 | 4.8 | 0.00 | 0.00 | 0.00 | 84 | 1021.3 |
| 20260905170401 | 24 | 91 | 1.6 | 4.8 | 0.00 | 0.00 | 0.00 | 85 | 1020.9 |
| 20260905165901 | 23 | 357 | 3.2 | 4.8 | 0.00 | 0.00 | 0.00 | 86 | 1021.1 |
| 20260905165355 | 23 | 357 | 1.6 | 3.2 | 0.00 | 0.00 | 0.00 | 86 | 1021.0 |
| 20260905164850 | 23 | 135 | 4.8 | 9.7 | 0.00 | 0.00 | 0.00 | 86 | 1021.1 |
| 20260905164345 | 23 | 56 | 1.6 | 1.6 | 0.00 | 0.00 | 0.00 | 87 | 1021.3 |
| 20260905163840 | 23 | 133 | 1.6 | 1.6 | 0.00 | 0.00 | 0.00 | 89 | 1021.4 |
| 20260905163336 | 22 | 332 | 1.6 | 1.6 | 0.00 | 0.00 | 0.00 | 90 | 1021.3 |